STARLINK-1934, 46792

Orbit data source: Space-Track

STARLINK-1934, 46792 is a payload satellite owned by SpaceX/Seattle (US) in LEO that was launched on Sat, 24 Oct 2020 UTC via an FALCON 9 launch vehicle from the Air Force Eastern Test Range (AFETR). Payloads include a variety of satellites, spacecraft, and rockets equipped with specific instruments for various scientific and technological missions. These include communications satellites like Starlink; space stations such as the ISS; scientific satellites like the Hubble; Earth observation satellites from companies like Planet Labs, Umbra, and HawkEye 360; GPS; miniature CubeSats for education and research; and military/defense satellites.

Loading next visibility...
STARLINK-1934 details
Identifier
46792, 2020-074BF
Orbit
LEO
Last TLE update15 hours ago
Origin
Flag of USSpaceX/Seattle (US)
ManufacturerSpaceX/Seattle
MissionOperational Commercial Communications
Bus & MotorSTARLINK, Unknown motor
Mass260 kg wet, ~248 kg dry
Launch date (UTC)
2020-10-24 (4 years ago)
Launch vehicle
FALCON 9
Launch site
Air Force Eastern Test Range (AFETR)
Object type
Payload
Rocket body
Debris
Shape & HBRBox + 1 Pan, 8.86 m
Radar Cross Section13.562 m², Large (>1 m²)

Expand to show TLE details & history

TLE from 15 hours ago
0 STARLINK-1934
1 46792U 20074BF  24348.52525763  .00001970  00000-0  15117-3 0  9992
2 46792  53.0523 176.9736 0001517  91.7386 268.3777 15.06392516228814
Epoch: 2024-12-13T12:36Z
Definitive object data (Epoch: 2024-12-13T12:36:22.259Z)
Latitude0.00002°
Longitude-94.80912°
Altitude548.143 km
Speed7.589 km/s
True Right ascension11h 47m 53s
True Declination0° 00' 00"
Sunlit
Object was in daylight at TLE epoch
Visualization TLE readout
Latitude12.72282°
Longitude72.65095°
Altitude546.992 km
Speed7.591 km/s
Apparent Right ascension19h 52m 43s
Apparent Declination-26° 38' 19"
Sunlit
Object is in daylight
Visualization observer readout
Local Sidereal Time02:12:28
Azimuth251.7° W
Elevation-20.286°
Doppler factor1
Orbital elements
Apogee altitude548.556 km
Perigee altitude546.455 km
Semi-major axis6,925.643 km
Eccentricity0.0001517
Inclination53.0523°
RAAN176.9736°
Arg. of periapsis91.7386°
True anomaly268.36032°
Mean anomaly268.3777°
Eccentric anomaly268.36901°
Mean motion3.76576 °/min
BSTAR0.00015117
Orbital period95.6 mins
Loading maneuver chart data...

STARLINK-1934 Visibility forecast

Observer location: undefined°, undefined

Span
Click to sort rows by Start time (UTC) header in descending order
Start Az.
Max El. time (UTC)
Max El. Az.
Max El.
End time (UTC)
End Az.
5 mins2024-12-14 14:13:42.987Z175.032° S2024-12-14 14:16:42.987Z124.815° SE19.512°2024-12-14 14:18:42.987Z89.325° E
6 mins2024-12-14 15:53:42.987Z256.655° W2024-12-14 15:55:42.987Z320.241° NNW39.228°2024-12-14 15:59:42.987Z42.92° NE
5 mins2024-12-14 20:55:42.987Z345.51° N2024-12-14 20:57:42.987Z31.301° NE24.888°2024-12-14 21:00:42.987Z84.005° E
6 mins2024-12-14 22:34:42.987Z294.904° NW2024-12-14 22:37:42.987Z197.99° SSW37.547°2024-12-14 22:40:42.987Z149.536° SSE
|